USGS - science for a changing world

Kansas Water Science Center

Jump to content

Jump back to navigation

Current Streamflow Conditions

Welcome to the U.S. Geological Survey (USGS) Web page for the water resources of Kansas. Here you'll find information on Kansas's rivers and streams. You'll also find information about groundwater, water quality, and many other topics. The USGS operates the most extensive satellite network of stream-gaging stations in the state, many of which form the backbone of flood-warning systems.

The Kansas Water Science Center provides current ("real-time") stream stage in Kansas and streamflow, water-quality, and groundwater levels for over 200 sites.
The USGS provides National ("real-time") stream stage and streamflow, water-quality, and groundwater levels for over 7000 sites.

Of Current Interest

USGS Scientific Investigations Report: Streamflow Characteristics and Trends Along Soldier Creek, Northeast Kansas

Press Release: Human Activity Alters Streamflow throughout Kansas

Water-level and recoverable water in storage changes, High Plains aquifer, predevelopment to 2015 and 2013-2015.

USGS WaterAlert Service Turn Around Don't Drown

Now you can receive instant, customized updates about water conditions by subscribing to WaterAlert, a new service from the U.S. Geological Survey. WaterAlert allows you to receive daily or hourly updates about current conditions in rivers, lakes and groundwater when they match conditions of concern to you.

Kansas Lake Report

Kansas Lake Report

Highlighted Publications

The Kansas Water Science Center produces publications about water resources.   Search our publications

Kansas Earthquakes - Last 30 days

  1. 2.7 6km SE of Mankato, Kansas 2017-10-13 21:13:34 CDT
  2. 1.75 17km S of Conway Springs, Kansas 2017-10-13 19:29:52 CDT
  3. 1.67 13km WSW of Conway Springs, Kansas 2017-10-12 01:48:08 CDT
  4. 1.76 13km WSW of Conway Springs, Kansas 2017-10-12 01:00:25 CDT
  5. 3.1 10km WNW of Harper, Kansas 2017-10-11 18:29:06 CDT
  6. 1.72 12km SW of Caldwell, Kansas 2017-10-11 10:21:15 CDT
  7. 1.78 5km E of Harper, Kansas 2017-10-10 22:22:04 CDT
  8. 2.5 19km SSE of Salina, Kansas 2017-10-10 15:25:25 CDT
  9. 1.5 2km E of Anthony, Kansas 2017-10-09 23:18:13 CDT
  10. 2.12 5km E of Harper, Kansas 2017-10-09 07:00:04 CDT
  11. 1.75 5km E of Harper, Kansas 2017-10-09 02:15:20 CDT
  12. 2.6 12km ESE of Anthony, Kansas 2017-10-08 20:27:38 CDT
  13. 2.6 4km E of Harper, Kansas 2017-10-08 15:20:18 CDT
  14. 1.83 12km SW of Caldwell, Kansas 2017-10-07 07:59:04 CDT
  15. 1.83 16km S of Anthony, Kansas 2017-10-04 12:54:08 CDT
  16. 2.3 15km SSE of Caldwell, Kansas 2017-10-01 23:46:44 CDT
  17. 2.36 20km SSE of Anthony, Kansas 2017-10-01 16:44:17 CDT
  18. 1.72 13km WSW of Conway Springs, Kansas 2017-10-01 01:49:27 CDT
  19. 1.64 13km ENE of Anthony, Kansas 2017-09-28 22:52:34 CDT
  20. 2.4 12km NW of Harper, Kansas 2017-09-28 10:22:16 CDT
  21. 2.8 16km NW of Harper, Kansas 2017-09-27 23:02:38 CDT
  22. 3.2 14km NW of Harper, Kansas 2017-09-27 22:56:54 CDT
  23. 1.79 13km WSW of Conway Springs, Kansas 2017-09-27 02:45:39 CDT
  24. 1.72 5km E of Harper, Kansas 2017-09-27 00:55:40 CDT
  25. 2.14 13km ENE of Anthony, Kansas 2017-09-27 00:44:35 CDT
  26. 2.7 13km ENE of Anthony, Kansas 2017-09-26 21:30:06 CDT
  27. 2.6 5km ESE of Harper, Kansas 2017-09-26 15:14:03 CDT
  28. 1.67 14km N of Caldwell, Kansas 2017-09-25 21:49:31 CDT
  29. 2.5 13km NW of Harper, Kansas 2017-09-25 17:27:15 CDT
  30. 2.04 5km E of Harper, Kansas 2017-09-25 02:58:05 CDT
  31. 1.82 18km NNW of Caldwell, Kansas 2017-09-21 19:39:43 CDT
  32. 2.5 13km ENE of Anthony, Kansas 2017-09-21 15:24:47 CDT
  33. 2.4 12km NW of Harper, Kansas 2017-09-21 00:34:35 CDT
  34. 2.4 14km WSW of Conway Springs, Kansas 2017-09-20 10:27:30 CDT
  35. 2.6 21km S of Anthony, Kansas 2017-09-19 18:18:21 CDT
  36. 1.89 18km NNW of Caldwell, Kansas 2017-09-19 12:36:54 CDT
06917500: Flow=642cfs,Stage=13.13ft,Floodstage=38ft,2017-10-18 17:30,>90,MARMATON R NR FORT SCOTT, KS 06882000: Flow=643cfs,Stage=4.67ft,Floodstage=20ft,2017-10-18 17:00,>90,Big Blue River at Barneston, Nebr. 06873000: Flow=58.5cfs,Stage=2.38ft,Floodstage=8.5ft,2017-10-18 17:15,>90,SF SOLOMON R AB WEBSTER RE, KS 06871500: Flow=26.9cfs,Stage=4.07ft,Floodstage=9ft,2017-10-18 17:45,>90,BOW C NR STOCKTON, KS 06871000: Flow=37.1cfs,Stage=3.39ft,Floodstage=11ft,2017-10-18 17:30,>90,NF SOLOMON R AT GLADE, KS 06868200: Flow=46.8cfs,Stage=3.66ft,2017-10-18 17:45,>90,SALINE R AT WILSON DAM, KS 06866900: Flow=22.5cfs,Stage=3.32ft,Floodstage=13ft,2017-10-18 17:00,>90,SALINE R NR WAKEENEY, KS 06852500: Flow=103cfs,Stage=1.47ft,2017-10-18 17:15,>90,Courtland Canal at Nebraska-Kansas Stateline 07144910: Flow=4.42cfs,Stage=2.71ft,Floodstage=9ft,2017-10-18 18:00,<10,SF NINNESCAH R NR PRATT, KS 06824000: Flow=6.51cfs,Stage=0.54ft,2017-10-18 16:45,<10,Rock Creek at Parks, Nebr. 06823500: Flow=0.00cfs,Stage=0.75ft,Floodstage=11ft,2017-10-18 16:45,<10,Buffalo Creek near Haigler, Nebr. 07185000: Flow=2120cfs,Stage=4.06ft,Floodstage=15ft,2017-10-18 17:30,76-90,Neosho River near Commerce, OK 07184000: Flow=76.2cfs,Stage=1.95ft,Floodstage=12ft,2017-10-18 17:45,76-90,LIGHTNING C NR MCCUNE, KS 07144780: Flow=75.0cfs,Stage=6.34ft,2017-10-18 17:30,76-90,NF NINNESCAH R AB CHENEY RE, KS 07143375: Flow=367cfs,Stage=6.06ft,2017-10-18 17:15,76-90,ARKANSAS R NR MAIZE, KS 07141780: Flow=8.95cfs,Stage=6.97ft,Floodstage=29ft,2017-10-18 17:15,76-90,WALNUT C AT NEKOMA, KS 07140850: Flow=1.17cfs,Stage=2.65ft,Floodstage=30ft,2017-10-18 17:00,76-90,PAWNEE R NR BURDETT, KS 07139000: Flow=129cfs,Stage=6.34ft,Floodstage=10ft,2017-10-18 17:30,76-90,ARKANSAS R AT GARDEN CITY, KS 07138000: Flow=299cfs,Stage=5.56ft,Floodstage=10ft,2017-10-18 17:15,76-90,ARKANSAS R AT SYRACUSE, KS 07137500: Flow=269cfs,Stage=3.95ft,Floodstage=8ft,2017-10-18 17:15,76-90,ARKANSAS R NR COOLIDGE, KS 06917000: Flow=108cfs,Stage=4.18ft,Floodstage=22ft,2017-10-18 17:15,76-90,L OSAGE R AT FULTON, KS 06893000: Flow=70900cfs,Stage=14.55ft,Floodstage=32ft,2017-10-18 17:30,76-90,Missouri River at Kansas City, MO 06889000: Flow=4330cfs,Stage=7.07ft,Floodstage=26ft,2017-10-18 17:30,76-90,KANSAS R AT TOPEKA, KS 06888350: Flow=3790cfs,Stage=7.68ft,Floodstage=20ft,2017-10-18 17:30,76-90,KANSAS R NR BELVUE, KS 06887500: Flow=4290cfs,Stage=5.77ft,Floodstage=19ft,2017-10-18 17:30,76-90,KANSAS R AT WAMEGO, KS 06887000: Flow=2030cfs,Stage=3.77ft,Floodstage=19ft,2017-10-18 17:00,76-90,BIG BLUE R NR MANHATTAN, KS 06882510: Flow=627cfs,Stage=12.69ft,Floodstage=35ft,2017-10-18 17:30,76-90,BIG BLUE R AT MARYSVILLE, KS 06879100: Flow=1820cfs,Stage=7.16ft,Floodstage=21ft,2017-10-18 17:30,76-90,KANSAS R AT FORT RILEY, KS 06876700: Flow=18.6cfs,Stage=4.45ft,Floodstage=18ft,2017-10-18 17:45,76-90,SALT C NR ADA, KS 06872500: Flow=56.0cfs,Stage=4.30ft,Floodstage=15ft,2017-10-18 17:30,76-90,NF SOLOMON R AT PORTIS, KS 06867000: Flow=92.6cfs,Stage=6.12ft,Floodstage=18ft,2017-10-18 17:30,76-90,SALINE R NR RUSSELL, KS 06862850: Flow=2.72cfs,Stage=2.59ft,Floodstage=11ft,2017-10-18 17:00,76-90,SMOKY HILL R BL SCHOENCHEN, KS 06860000: Flow=1.30cfs,Stage=4.28ft,Floodstage=9ft,2017-10-18 17:30,76-90,SMOKY HILL R AT ELKADER, KS 06857100: Flow=1430cfs,Stage=7.29ft,2017-10-18 17:30,76-90,REPUBLICAN R AT JUNCTION CITY, KS 06847900: Flow=2.40cfs,Stage=3.51ft,Floodstage=11ft,2017-10-18 17:45,76-90,PRAIRIE DOG C AB KEITH SEBELIUS LAKE, KS 06818000: Flow=62600cfs,Stage=11.79ft,Floodstage=17ft,2017-10-18 17:30,76-90,Missouri River at St. Joseph, MO 06815000: Flow=218cfs,Stage=4.63ft,Floodstage=27ft,2017-10-18 17:45,76-90,Big Nemaha River at Falls City, Nebr. 06813500: Flow=57600cfs,Stage=12.37ft,Floodstage=17ft,2017-10-18 17:30,76-90,Missouri River at Rulo, NE 07156900: Flow=17.0cfs,Stage=2.10ft,Floodstage=5ft,2017-10-18 17:00,10-24,Cimarron River near Forgan, OK 07143665: Flow=3.05cfs,Stage=-0.07ft,Floodstage=22ft,2017-10-18 17:15,10-24,L ARKANSAS R AT ALTA MILLS, KS 07142300: Flow=0.09cfs,Stage=3.02ft,Floodstage=9ft,2017-10-18 17:00,10-24,RATTLESNAKE C NR MACKSVILLE, KS 06875900: Flow=11.8cfs,Stage=7.34ft,Floodstage=21ft,2017-10-18 17:30,10-24,SOLOMON R NR GLEN ELDER, KS 06854500: Flow=80.1cfs,Stage=0.60ft,Floodstage=10ft,2017-10-18 17:15,10-24,REPUBLICAN R AT SCANDIA, KS 06821500: Flow=1.30cfs,Stage=5.05ft,Floodstage=12ft,2017-10-18 16:30,10-24,Arikaree River at Haigler, Nebr. 07188000: Flow=831cfs,Stage=6.90ft,Floodstage=20ft,2017-10-18 17:00,25-75,Spring River near Quapaw, OK 07186000: Flow=270cfs,Stage=1.84ft,Floodstage=19ft,2017-10-18 17:30,25-75,Spring River near Waco, MO 07183500: Flow=854cfs,Stage=8.17ft,Floodstage=21ft,2017-10-18 17:00,25-75,NEOSHO R NR PARSONS, KS 07183000: Flow=114cfs,Stage=6.89ft,Floodstage=15ft,2017-10-18 17:30,25-75,NEOSHO R NR IOLA, KS 07182510: Flow=52.5cfs,Stage=5.79ft,Floodstage=27ft,2017-10-18 17:15,25-75,NEOSHO R AT BURLINGTON, KS 07182250: Flow=78.6cfs,Stage=2.23ft,Floodstage=32ft,2017-10-18 18:00,25-75,COTTONWOOD R NR PLYMOUTH, KS 07180500: Flow=4.00cfs,Stage=4.16ft,2017-10-18 17:15,25-75,CEDAR C NR CEDAR POINT, KS 07180400: Flow=47.5cfs,Stage=3.26ft,Floodstage=22ft,2017-10-18 17:15,25-75,COTTONWOOD R NR FLORENCE, KS 07179795: Flow=10.9cfs,Stage=4.86ft,2017-10-18 17:30,25-75,N COTTONWOOD R BL MARION LK, KS 07179730: Flow=24.1cfs,Stage=2.76ft,Floodstage=26ft,2017-10-18 17:15,25-75,NEOSHO R NR AMERICUS, KS 07179500: Flow=5.10cfs,Stage=7.95ft,2017-10-18 18:00,25-75,NEOSHO R AT COUNCIL GROVE, KS 07172000: Flow=8.00cfs,Stage=1.54ft,2017-10-18 18:00,25-75,CANEY R NR ELGIN, KS 07170500: Flow=298cfs,Stage=2.53ft,Floodstage=30ft,2017-10-18 18:00,25-75,VERDIGRIS R AT INDEPENDENCE, KS 07169800: Flow=7.63cfs,Stage=2.56ft,2017-10-18 18:00,25-75,ELK R AT ELK FALLS, KS 07169500: Flow=33.0cfs,Stage=2.98ft,Floodstage=17ft,2017-10-18 18:00,25-75,FALL R AT FREDONIA, KS 07167500: Flow=0.95cfs,Stage=1.22ft,2017-10-18 17:15,25-75,OTTER C AT CLIMAX, KS 07166500: Flow=33.3cfs,Stage=3.37ft,Floodstage=19ft,2017-10-18 17:45,25-75,VERDIGRIS R NR ALTOONA, KS 07157500: Flow=4.80cfs,Stage=2.20ft,Floodstage=6.5ft,2017-10-18 17:30,25-75,CROOKED C NR ENGLEWOOD, KS 07151500: Flow=54.3cfs,Stage=2.12ft,Floodstage=10ft,2017-10-18 18:00,25-75,CHIKASKIA R NR CORBIN, KS 07149000: Flow=60.4cfs,Stage=0.55ft,Floodstage=10ft,2017-10-18 17:30,25-75,MEDICINE LODGE R NR KIOWA, KS 07147800: Flow=109cfs,Stage=1.26ft,Floodstage=18ft,2017-10-18 18:00,25-75,WALNUT R AT WINFIELD, KS 07147070: Flow=22.5cfs,Stage=1.69ft,2017-10-18 17:30,25-75,WHITEWATER R AT TOWANDA, KS 07146500: Flow=914cfs,Stage=4.07ft,Floodstage=11ft,2017-10-18 18:00,25-75,ARKANSAS R AT ARKANSAS CITY, KS 07145700: Flow=7.35cfs,Stage=3.97ft,Floodstage=19ft,2017-10-18 18:00,25-75,SLATE C AT WELLINGTON, KS 07145500: Flow=157cfs,Stage=2.91ft,Floodstage=17ft,2017-10-18 18:00,25-75,NINNESCAH R NR PECK, KS 07145200: Flow=118cfs,Stage=3.79ft,Floodstage=8ft,2017-10-18 18:00,25-75,SF NINNESCAH R NR MURDOCK, KS 07144300: Flow=509cfs,Stage=3.92ft,2017-10-18 17:45,25-75,ARKANSAS R AT WICHITA, KS 07144200: Flow=34.8cfs,Stage=0.93ft,2017-10-18 17:00,25-75,L ARKANSAS R AT VALLEY CENTER, KS 07143330: Flow=275cfs,Stage=2.87ft,Floodstage=10ft,2017-10-18 17:30,25-75,ARKANSAS R NR HUTCHINSON, KS 07143300: Flow=15.0cfs,Stage=4.75ft,Floodstage=18ft,2017-10-18 17:30,25-75,COW C NR LYONS, KS 07142575: Flow=10.1cfs,Stage=11.80ft,Floodstage=17ft,2017-10-18 17:30,25-75,RATTLESNAKE C NR ZENITH, KS 07141900: Flow=14.6cfs,Stage=3.29ft,Floodstage=24ft,2017-10-18 17:45,25-75,WALNUT C AT ALBERT, KS 07141300: Flow=75.2cfs,Stage=1.71ft,Floodstage=12ft,2017-10-18 17:30,25-75,ARKANSAS R AT GREAT BEND, KS 07141200: Flow=4.41cfs,Stage=7.70ft,Floodstage=31ft,2017-10-18 17:30,25-75,PAWNEE R AT ROZEL, KS 06916600: Flow=641cfs,Stage=5.49ft,Floodstage=27ft,2017-10-18 17:45,25-75,MARAIS DES CYGNES R NR KS-MO ST LINE, KS 06915800: Flow=468cfs,Stage=5.41ft,Floodstage=25ft,2017-10-18 17:15,25-75,MARAIS DES CYGNES R AT LA CYGNE, KS 06915000: Flow=10.1cfs,Stage=2.01ft,2017-10-18 17:30,25-75,BIG BULL C NR HILLSDALE, KS 06913500: Flow=36.6cfs,Stage=3.55ft,Floodstage=31ft,2017-10-18 17:30,25-75,MARAIS DES CYGNES R NR OTTAWA, KS 06913000: Flow=43.1cfs,Stage=1.20ft,Floodstage=20ft,2017-10-18 17:30,25-75,MARAIS DES CYGNES R NR POMONA, KS 06912500: Flow=18.3cfs,Stage=2.70ft,2017-10-18 17:45,25-75,HUNDRED AND TEN MILE C NR QUENEMO, KS 06911900: Flow=0.46cfs,Stage=7.89ft,Floodstage=19ft,2017-10-18 17:00,25-75,DRAGOON C NR BURLINGAME, KS 06910800: Flow=0.15cfs,Stage=2.03ft,Floodstage=19ft,2017-10-18 17:45,25-75,MARAIS DES CYGNES R NR READING, KS 06893500: Flow=37.9cfs,Stage=4.11ft,Floodstage=34ft,2017-10-18 17:45,25-75,Blue River at Kansas City, MO 06893300: Flow=15.8cfs,Stage=5.73ft,Floodstage=14ft,2017-10-18 17:15,25-75,INDIAN C AT OVERLAND PARK, KS 06892350: Flow=4370cfs,Stage=6.40ft,Floodstage=26ft,2017-10-18 17:45,25-75,KANSAS R AT DESOTO, KS 06892000: Flow=27.0cfs,Stage=2.41ft,Floodstage=23ft,2017-10-18 17:30,25-75,STRANGER C NR TONGANOXIE, KS 06891500: Flow=12.1cfs,Stage=4.30ft,Floodstage=23ft,2017-10-18 17:45,25-75,WAKARUSA R NR LAWRENCE, KS 06891000: Flow=3990cfs,Stage=3.83ft,Floodstage=17ft,2017-10-18 17:30,25-75,KANSAS R AT LECOMPTON, KS 06890900: Flow=116cfs,Stage=28.85ft,2017-10-18 17:30,25-75,DELAWARE R AT PERRY, KS 06890100: Flow=12.2cfs,Stage=2.34ft,Floodstage=27ft,2017-10-18 17:45,25-75,DELAWARE R NR MUSCOTAH, KS 06889500: Flow=9.54cfs,Stage=-0.08ft,Floodstage=29ft,2017-10-18 18:00,25-75,SOLDIER C NR TOPEKA, KS 06889200: Flow=9.63cfs,Stage=6.47ft,Floodstage=26ft,2017-10-18 17:30,25-75,SOLDIER C NR DELIA, KS 06888500: Flow=16.5cfs,Stage=2.30ft,Floodstage=21ft,2017-10-18 17:45,25-75,MILL C NR PAXICO, KS 06888000: Flow=12.5cfs,Stage=3.69ft,2017-10-18 17:45,25-75,VERMILLION C NR WAMEGO, KS 06885500: Flow=16.2cfs,Stage=3.15ft,Floodstage=19ft,2017-10-18 17:30,25-75,BLACK VERMILLION R NR FRANKFORT, KS 06884400: Flow=192cfs,Stage=3.97ft,Floodstage=21ft,2017-10-18 17:30,25-75,L BLUE R NR BARNES, KS 06884200: Flow=13.0cfs,Stage=1.70ft,Floodstage=18ft,2017-10-18 17:45,25-75,MILL C AT WASHINGTON, KS 06884025: Flow=171cfs,Stage=2.02ft,Floodstage=19ft,2017-10-18 18:00,25-75,Little Blue River at Hollenberg, KS 06878000: Flow=24.5cfs,Stage=4.59ft,Floodstage=19ft,2017-10-18 17:45,25-75,CHAPMAN C NR CHAPMAN, KS 06877600: Flow=332cfs,Stage=6.99ft,Floodstage=26ft,2017-10-18 17:45,25-75,SMOKY HILL R AT ENTERPRISE, KS 06876900: Flow=120cfs,Stage=3.62ft,Floodstage=24ft,2017-10-18 17:30,25-75,SOLOMON R AT NILES, KS 06876000: Flow=22.9cfs,Stage=2.69ft,Floodstage=20ft,2017-10-18 17:45,25-75,SOLOMON R AT BELOIT, KS 06874000: Flow=29.8cfs,Stage=3.89ft,Floodstage=14ft,2017-10-18 17:30,25-75,SF SOLOMON R AT OSBORNE, KS 06873460: Flow=8.10cfs,Stage=4.43ft,Floodstage=12ft,2017-10-18 17:30,25-75,SF SOLOMON R AT WOODSTON, KS 06869500: Flow=71.4cfs,Stage=5.94ft,Floodstage=25ft,2017-10-18 17:30,25-75,SALINE R AT TESCOTT, KS 06866500: Flow=109cfs,Stage=4.33ft,Floodstage=20ft,2017-10-18 17:45,25-75,SMOKY HILL R NR MENTOR, KS 06866000: Flow=111cfs,Stage=6.84ft,Floodstage=21ft,2017-10-18 17:30,25-75,SMOKY HILL R AT LINDSBORG, KS 06865500: Flow=99.2cfs,Stage=3.52ft,2017-10-18 17:30,25-75,SMOKY HILL R NR LANGLEY, KS 06864500: Flow=42.0cfs,Stage=1.84ft,Floodstage=20ft,2017-10-18 17:30,25-75,SMOKY HILL R AT ELLSWORTH, KS 06864000: Flow=43.3cfs,Stage=3.74ft,Floodstage=18ft,2017-10-18 17:30,25-75,SMOKY HILL R NR RUSSELL, KS 06863500: Flow=9.71cfs,Stage=5.33ft,Floodstage=26ft,2017-10-18 17:30,25-75,BIG C NR HAYS, KS 06862700: Flow=4.47cfs,Stage=3.61ft,2017-10-18 17:30,25-75,SMOKY HILL R NR SCHOENCHEN, KS 06861000: Flow=0.17cfs,Stage=0.32ft,Floodstage=7ft,2017-10-18 17:30,25-75,SMOKY HILL R NR ARNOLD, KS 06856600: Flow=241cfs,Stage=7.09ft,Floodstage=15ft,2017-10-18 17:30,25-75,REPUBLICAN R AT CLAY CENTER, KS 06856000: Flow=134cfs,Stage=4.70ft,Floodstage=15ft,2017-10-18 17:30,25-75,REPUBLICAN R AT CONCORDIA, KS 06853800: Flow=3.22cfs,Stage=1.59ft,Floodstage=16ft,2017-10-18 17:45,25-75,WHITE ROCK C NR BURR OAK, KS 06853500: Flow=52.9cfs,Stage=1.47ft,Floodstage=11ft,2017-10-18 17:30,25-75,REPUBLICAN R NR HARDY, NE 06814000: Flow=11.7cfs,Stage=1.22ft,Floodstage=21ft,2017-10-18 17:45,25-75,TURKEY C NR SENECA, KS 375350097262800: Stage=4.61ft,2017-10-18 17:00,Not ranked,L ARKANSAS R UPSTREAM OF ASR FAC NR SEDGWICK, KS 07187600: Flow=782cfs,Stage=3.43ft,Floodstage=14ft,2017-10-18 17:30,Not ranked,SPRING R NR BAXTER SPRINGS, KS 07186055: Flow=83.8cfs,Stage=6.00ft,2017-10-18 17:45,Not ranked,COW C NR SCAMMON, KS 07185090: Flow=7.24cfs,Stage=8.47ft,2017-10-18 17:15,Not ranked,Tar Creek near Commerce, OK 07184500: Flow=65.8cfs,Stage=6.62ft,2017-10-18 17:00,Not ranked,LABETTE C NR OSWEGO, KS 07183300: Stage=11.91ft,Floodstage=29ft,2017-10-18 17:15,Not ranked,NEOSHO R NR ERIE, KS 07182395: Stage=-3.72ft,2017-10-18 18:00,Not ranked,NEOSHO R AT HARTFORD, KS 07182390: Flow=101cfs,Stage=0.73ft,Floodstage=22ft,2017-10-18 17:30,Not ranked,NEOSHO R AT NEOSHO RAPIDS, KS 07182260: Flow=89.1cfs,Stage=1.67ft,Floodstage=20ft,2017-10-18 17:30,Not ranked,COTTONWOOD R AT EMPORIA, KS 07182200: Flow=1.59cfs,Stage=6.45ft,2017-10-18 17:30,Not ranked,SF COTTONWOOD R NR BAZAAR, KS 07180200: Stage=5.00ft,2017-10-18 17:30,Not ranked,COTTONWOOD R AT MARION, KS 07179785: Flow=0.72cfs,Stage=9.39ft,2017-10-18 17:30,Not ranked,NF COTTONWOOD R NR DURHAM, KS 07179750: Flow=16.6cfs,Stage=3.49ft,2017-10-18 17:30,Not ranked,NEOSHO R AT BURLINGAME RD NR EMPORIA, KS 07179710: Stage=10.89ft,2017-10-18 17:00,Not ranked,NEOSHO R NR DUNLAP, KS 07179700: Flow=3.33cfs,Stage=9.19ft,2017-10-18 17:15,Not ranked,ROCK C NR DUNLAP, KS 07179300: Flow=1.64cfs,Stage=7.82ft,2017-10-18 17:45,Not ranked,NEOSHO R NR PARKERVILLE, KS 07170990: Flow=477cfs,Stage=3.99ft,2017-10-18 17:45,Not ranked,VERDIGRIS R AT COFFEYVILLE, KS 07170700: Stage=3.21ft,2017-10-18 17:00,Not ranked,BIG HILL C NR CHERRYVALE, KS 07165750: Flow=10.2cfs,Stage=6.96ft,2017-10-18 18:00,Not ranked,VERDIGRIS R NR VIRGIL, KS 07157940: Flow=0.64cfs,Stage=5.03ft,2017-10-18 18:00,Not ranked,BLUFF C NR BUTTERMILK, KS 07157740: Flow=1.26cfs,Stage=6.97ft,2017-10-18 17:15,Not ranked,CIMARRON R NR BUTTERMILK, KS 07148111: Flow=61.0cfs,Stage=4.63ft,2017-10-18 17:30,Not ranked,GROUSE C NR SILVERDALE, KS 07147900: Stage=3.22ft,Floodstage=18ft,2017-10-18 17:15,Not ranked,WALNUT R AT ARKANSAS CITY, KS 07147190: Stage=3.86ft,Floodstage=21ft,2017-10-18 17:15,Not ranked,WHITEWATER R AT AUGUSTA, KS 07146800: Flow=3.98cfs,Stage=5.62ft,Floodstage=21ft,2017-10-18 17:00,Not ranked,WB WALNUT R NR EL DORADO, KS 07145600: Flow=900cfs,Stage=8.35ft,Floodstage=17ft,2017-10-18 17:45,Not ranked,ARKANSAS R ON HWY 160 AT OXFORD, KS 07144790: Stage=1420.92ft,2017-10-18 17:00,Not ranked,CHENEY RE NR CHENEY, KS 07144570: Flow=752cfs,Stage=6.94ft,Floodstage=16.5ft,2017-10-18 17:15,Not ranked,ARKANSAS R AT MULVANE, KS 07144550: Flow=652cfs,Stage=2.02ft,Floodstage=12ft,2017-10-18 11:00,Not ranked,ARKANSAS R AT DERBY, KS 07144490: Flow=6.82cfs,Stage=7.39ft,2017-10-18 17:15,Not ranked,COWSKIN C AT KELLOGG ST, WICHITA, KS 07144486: Flow=0.06cfs,Stage=4.63ft,2017-10-18 18:00,Not ranked,CALFSKIN C AT 119TH ST, WICHITA, KS 07144480: Flow=4.34cfs,Stage=7.41ft,Floodstage=18ft,2017-10-18 17:30,Not ranked,COWSKIN C AT 119TH ST AT WICHITA, KS 07144470: Stage=11.37ft,2017-10-18 17:15,Not ranked,COWSKIN C AT 29TH ST NORTH OF WICHITA, KS 07144301: Flow=0.00cfs,Stage=6.49ft,2017-10-18 17:45,Not ranked,FLOODWAY AT ARKANSAS R AT WICHITA, KS 07144201: Flow=0.00cfs,Stage=2.58ft,2017-10-18 17:00,Not ranked,FLOODWAY AT L ARKANSAS R AT VALLEY CENTER, KS 07144100: Flow=26.4cfs,Stage=2.69ft,Floodstage=22ft,2017-10-18 17:15,Not ranked,L ARKANSAS R NR SEDGWICK, KS 07144050: Flow=6.69cfs,Stage=-0.91ft,Floodstage=19ft,2017-10-18 17:15,Not ranked,EMMA C AT SEDGWICK, KS 07143672: Flow=16.9cfs,Stage=5.73ft,Floodstage=25ft,2017-10-18 17:30,Not ranked,L ARKANSAS R AT HWY 50 NR HALSTEAD, KS 07143310: Stage=2.37ft,Floodstage=9.5ft,2017-10-18 17:15,Not ranked,COW C NR HUTCHINSON, KS 07142680: Flow=279cfs,Stage=10.08ft,2017-10-18 17:00,Not ranked,ARKANSAS R NR NICKERSON, KS 07142019: Flow=1.09cfs,Stage=2.00ft,2017-10-18 18:00,Not ranked,CHEYENNE BOTTOMS DV NR GREAT BEND, KS 07141220: Flow=64.2cfs,Stage=4.67ft,2017-10-18 18:00,Not ranked,ARKANSAS R NR LARNED, KS 07141000: Flow=0.69cfs,Stage=3.77ft,2017-10-18 17:45,Not ranked,BUCKNER C AT HANSTON, KS 07140900: Flow=3.68cfs,Stage=2.70ft,2017-10-18 17:15,Not ranked,BUCKNER C NR JETMORE, KS 07140890: Flow=1.99cfs,Stage=3.06ft,2017-10-18 17:45,Not ranked,BUCKNER C BL HORSETHIEF RE NR JETMORE, KS 07140880: Stage=4.05ft,2017-10-18 17:15:00,Not ranked,Back Water,BUCKNER C AB HORSETHIEF RE NR JETMORE, KS 07139500: Stage=6.00ft,Floodstage=11ft,2017-10-18 17:00,Not ranked,ARKANSAS R AT DODGE CITY, KS 07138075: Flow=5.31cfs,2017-10-18 15:45,Stage=2.20ft,2017-10-18 17:00:00,Not ranked,FARMERS DITCH NR DEERFIELD, KS 07138070: Flow=224cfs,Stage=8.50ft,Floodstage=14ft,2017-10-18 17:45,Not ranked,ARKANSAS R AT DEERFIELD, KS 07138064: Flow=0.00cfs,Stage=1.98ft,2017-10-18 17:15,Not ranked,SOUTHSIDE DITCH RETURN NR DEERFIELD, KS 07138063: Flow=3.00cfs,2017-09-24 02:45,Stage=1.33ft,2017-10-18 17:00:00,Not ranked,SOUTHSIDE DITCH NR LAKIN, KS 07138050: Stage=2.60ft,2017-10-18 17:00:00,Not ranked,Equipment malfunction,AMAZON GREAT EASTERN DITCH NR LAKIN, KS 07138020: Flow=312cfs,Stage=7.34ft,2017-10-18 17:45,Not ranked,ARKANSAS R AT KENDALL, KS 07137010: Flow=0.00cfs,Stage=1.96ft,2017-10-18 17:45,Not ranked,FRONTIER DITCH RETURN NR COOLIDGE, KS 07137000: Flow=0.00cfs,Stage=9.19ft,2017-10-18 17:45,Not ranked,FRONTIER DITCH NR COOLIDGE, KS 07134990: Flow=12.0cfs,Stage=2.74ft,2017-10-18 16:15,Not ranked,WILD HORSE CREEK ABOVE HOLLY, CO 06917630: Flow=1.65cfs,Stage=1.75ft,2017-10-18 17:15,Not ranked,East Drywood Creek at Prairie State Park 06917560: Flow=887cfs,Stage=8.16ft,Floodstage=25ft,2017-10-18 17:15,Not ranked,Marmaton River near Richards, MO 06917240: Flow=73.8cfs,Stage=0.71ft,2017-10-18 18:00,Not ranked,MARMATON R NR UNIONTOWN, KS 06914995: Stage=917.82ft,2017-10-18 17:30,Not ranked,HILLSDALE LK NR HILLSDALE, KS 06914990: Flow=1.50cfs,Stage=2.98ft,2017-10-18 17:30,Not ranked,L BULL C NR SPRING HILL, KS 06914950: Flow=1.39cfs,Stage=1.86ft,2017-10-18 18:00,Not ranked,BIG BULL C NR EDGERTON, KS 06914500: Flow=134cfs,Stage=6.02ft,Floodstage=23ft,2017-10-18 17:30,Not ranked,POTTAWATOMIE C AT LANE, KS 06914100: Flow=73.7cfs,Stage=3.84ft,Floodstage=23ft,2017-10-18 17:45,Not ranked,POTTAWATOMIE C NR SCIPIO, KS 06912490: Stage=975.94ft,2017-10-18 17:45,Not ranked,POMONA LK NR QUENEMO, KS 06911490: Stage=0.58ft,2017-10-18 17:30:00,Floodstage=10ft,Not ranked,Back Water,SALT C AT LYNDON, KS 06911000: Stage=2.49ft,2017-10-18 17:45:00,Not ranked,Back Water,MARAIS DES CYGNES R AT MELVERN, KS 06910997: Stage=1035.64ft,2017-10-18 17:30,Not ranked,MELVERN LK NR MELVERN, KS 06893578: Flow=52.2cfs,Stage=5.53ft,Floodstage=33ft,2017-10-18 17:30,Not ranked,Blue River at Stadium Drive in Kansas City, MO 06893562: Stage=4.53ft,2017-10-18 17:45,Not ranked,Brush Creek at Rockhill Road in Kansas City, MO 06893557: Flow=1.09cfs,Stage=35.66ft,Floodstage=47ft,2017-10-18 17:15,Not ranked,Brush Creek at Ward Parkway in Kansas City, MO 06893400: Stage=83.10ft,2017-10-18 17:30,Not ranked,Indian Creek at 103rd St in Kansas City, MO 06893390: Flow=25.2cfs,Stage=10.20ft,Floodstage=20ft,2017-10-18 17:30,Not ranked,INDIAN C AT STATE LINE RD, LEAWOOD, KS 06893350: Flow=2.57cfs,Stage=1.98ft,2017-10-18 17:15,Not ranked,TOMAHAWK C NR OVERLAND PARK, KS 06893150: Flow=33.0cfs,Stage=25.23ft,Floodstage=35ft,2017-10-18 18:00,Not ranked,Blue River at Blue Ridge Blvd Ext in KC, MO 06893100: Flow=11.1cfs,Stage=5.14ft,2017-10-18 17:30,Not ranked,BLUE R AT KENNETH RD, OVERLAND PARK, KS 06893080: Stage=4.59ft,2017-10-18 17:45:00,Floodstage=16ft,Not ranked,Back Water,BLUE R NR STANLEY, KS 06892950: Stage=15.69ft,Floodstage=33ft,2017-10-18 17:45,Not ranked,KANSAS R AT KANSAS CITY, KS 06892518: Flow=4780cfs,Stage=11.00ft,2017-10-18 17:30,Not ranked,KANSAS R NR LAKE QUIVIRA, KS 06892513: Flow=10.5cfs,Stage=48.68ft,2017-10-18 17:30,Not ranked,MILL C AT JOHNSON DRIVE, SHAWNEE, KS 06892495: Flow=11.6cfs,Stage=57.28ft,2017-10-18 17:45,Not ranked,CEDAR C NR DESOTO, KS 06892494: Stage=3.21ft,2017-10-18 18:00,Not ranked,CAMP C AT 95TH ST NR DESOTO, KS 06892493: Stage=76.84ft,2017-10-18 18:00,Not ranked,CEDAR C AT 95TH ST NR DESOTO, KS 06892360: Flow=7.42cfs,Stage=5.12ft,2017-10-18 17:30,Not ranked,KILL C AT 95TH ST NR DESOTO, KS 06891850: Flow=11.9cfs,Stage=2.26ft,Floodstage=17ft,2017-10-18 17:30,Not ranked,STRANGER C AT EASTON, KS 06891478: Stage=877.22ft,2017-10-18 17:00,Not ranked,CLINTON LK NR LAWRENCE, KS 06891260: Flow=3.93cfs,Stage=3.54ft,2017-10-18 17:30,Not ranked,WAKARUSA R NR RICHLAND, KS 06891200: Stage=2.83ft,Floodstage=15ft,2017-10-18 17:15,Not ranked,WAKARUSA R AT WAKARUSA, KS 06891080: Flow=4100cfs,Stage=-10.37ft,Floodstage=18ft,2017-10-18 17:45,Not ranked,KANSAS R AT LAWRENCE, KS 06890898: Stage=893.79ft,2017-10-18 17:30,Not ranked,PERRY LK NR PERRY, KS 06889630: Flow=2.20cfs,Stage=4.19ft,Floodstage=24ft,2017-10-18 17:15,Not ranked,SHUNGANUNGA C AT TOPEKA, KS 06889585: Stage=4.78ft,Floodstage=15ft,2017-10-18 17:15,Not ranked,SHUNGANUNGA C AT GAGE BLVD, TOPEKA, KS 06888990: Flow=4450cfs,Stage=6.86ft,2017-10-18 17:30,Not ranked,KANSAS R AT TOPEKA WATER PLANT, KS 06888700: Stage=7.18ft,Floodstage=25ft,2017-10-18 17:30,Not ranked,CROSS C AT ROSSVILLE, KS 06888300: Flow=11.7cfs,Stage=8.50ft,Floodstage=27ft,2017-10-18 17:00,Not ranked,ROCK C NR LOUISVILLE, KS 06886900: Stage=1083.35ft,2017-10-18 17:00,Not ranked,TUTTLE C LK NR MANHATTAN, KS 06886850: Flow=2.10cfs,Stage=4.74ft,2017-10-18 17:45,Not ranked,MILL C NR RILEY, KS 06886500: Flow=13.1cfs,Stage=0.88ft,Floodstage=16ft,2017-10-18 17:15,Not ranked,FANCY C AT WINKLER, KS 06884700: Stage=16.64ft,Floodstage=26ft,2017-10-18 17:15,Not ranked,BIG BLUE R AT BLUE RAPIDS, KS 06879820: Stage=7.10ft,Floodstage=18ft,2017-10-18 18:00,Not ranked,KANSAS R AT MANHATTAN, KS 06879815: Stage=2.43ft,2017-10-18 18:00,Not ranked,WILDCAT C AT SETH CHILDS RD, MANHATTAN, KS 06879810: Flow=5.34cfs,Stage=2.51ft,Floodstage=14ft,2017-10-18 17:15,Not ranked,WILDCAT C AT SCENIC DRIVE, MANHATTAN, KS 06879805: Stage=7.11ft,2017-10-18 17:00,Not ranked,WILDCAT C AT KEATS, KS 06879650: Flow=0.00cfs,Stage=2.06ft,2017-10-12 17:15,Not ranked,KINGS C NR MANHATTAN, KS 06878600: Flow=19.2cfs,Stage=5.50ft,Floodstage=21ft,2017-10-18 17:15,Not ranked,LYON C NR JUNCTION CITY, KS 06876440: Flow=55.4cfs,Stage=2.37ft,Floodstage=26ft,2017-10-18 17:15,Not ranked,SOLOMON R NR MINNEAPOLIS, KS 06876070: Stage=7.21ft,2017-10-18 17:15,Not ranked,SOLOMON R NR SIMPSON, KS 06870300: Flow=2.07cfs,Stage=19.65ft,2017-10-18 17:15,Not ranked,GYPSUM C NR GYPSUM, KS 06870200: Stage=5.86ft,Floodstage=27ft,2017-10-18 17:45,Not ranked,SMOKY HILL R AT NEW CAMBRIA, KS 06869950: Flow=0.92cfs,Stage=2.63ft,Floodstage=24ft,2017-10-18 17:00,Not ranked,MULBERRY C NR SALINA, KS 06868850: Flow=86.7cfs,Stage=11.92ft,Floodstage=30ft,2017-10-18 17:45,Not ranked,SALINE R AT LINCOLN, KS 06868100: Stage=1517.13ft,2017-10-18 17:30,Not ranked,WILSON LK NR WILSON, KS 06867500: Flow=1.13cfs,Stage=8.55ft,2017-10-18 17:30,Not ranked,PARADISE C NR PARADISE, KS 06865000: Stage=1465.68ft,2017-10-18 17:30,Not ranked,KANOPOLIS LK NR KANOPOLIS, KS 06863420: Flow=4.11cfs,Stage=1.71ft,2017-10-18 17:15,Not ranked,BIG C NR ELLIS, KS 06863000: Flow=7.71cfs,Stage=1.57ft,2017-10-18 18:00,Not ranked,SMOKY HILL R AT PFEIFER, KS 06861500: Stage=2118.30ft,2017-10-18 17:15,Not ranked,CEDAR BLUFF RE NR ELLIS, KS 06860900: Flow=0.00cfs,Stage=7.00ft,2017-10-18 17:30,Not ranked,HACKBERRY C NR TREGO CENTER, KS 06857050: Stage=1145.54ft,2017-10-18 17:30,Not ranked,MILFORD LK NR JUNCTION CITY, KS 06855850: Flow=4.75cfs,Stage=3.99ft,2017-10-18 17:15,Not ranked,BUFFALO C 4 MI E OF JAMESTOWN, KS 06854000: Stage=-0.09ft,2017-10-18 17:45,Not ranked,WHITE ROCK C AT LOVEWELL, KS 06853020: Flow=5.83cfs,Stage=2.68ft,Floodstage=12.5ft,2017-10-18 17:30,Not ranked,Republican River at Guide Rock, Nebr. 06848500: Flow=0.00cfs,Stage=1.04ft,Floodstage=21ft,2017-10-18 17:30,Not ranked,PRAIRIE DOG C NR WOODRUFF, KS 06846500: Flow=0.00cfs,Stage=2.75ft,Floodstage=16ft,2017-10-18 17:00,Not ranked,BEAVER C AT CEDAR BLUFFS, KS 06845110: Flow=0.45cfs,Stage=4.69ft,Floodstage=17ft,2017-10-18 17:30,Not ranked,SAPPA C NR LYLE, KS 06827500: Flow=0.00cfs,Stage=-0.91ft,Floodstage=9ft,2017-10-18 16:30,Not ranked,South Fork Republican River near Benkelman, Nebr. 06827000: Flow=3.88cfs,Stage=3.16ft,2017-10-18 17:45,Not ranked,SF REPUBLICAN R NR CO-KS ST LINE, KS 06820475: Stage=9.53ft,Floodstage=20ft,2017-10-18 17:00,Not ranked,MISSOURI R AT LEAVENWORTH, KS 06818300: Stage=14.09ft,Floodstage=22ft,2017-10-18 18:00,Not ranked,MISSOURI R AT ATCHISON, KS Go to WaterWatch (offsite) for a larger map with additional options
USGS Home Water Resources Biology Geography Geology Geospatial

Accessibility FOIA Privacy Policies and Notices

Take Pride in America logo USA.gov logo U.S. Department of the Interior | U.S. Geological Survey
Page Contact Information: GS-W-KS_info@usgs.gov
Page Last Modified: 2017-10-13 11:20:27 CDT